BEIDOU 16 (C02)

Last updated on Jan. 19, 2020, 4:38 a.m. UTC

1 38953U 12059A   20018.60980554 -.00000182  00000-0  00000-0 0  9995
2 38953   1.5827  83.6944 0006393 216.7193 120.6130  1.00272481 26564
UTC
Height (km)
Latitude
Longitude
Inclination
Orbital Period
UTC large
Height (km)
Speed (km/s)
/
Latitude / Longitude
Inclination (degrees)
Orbital Period (minutes)
Azimuth
Elevation
Range (km)
Doppler Factor
iOS Compass Heading
iOS Angle

Next 30 passes for location: Hong Kong

Rise time Rise Azimuth (degrees) Set time Set Azimuth (degrees) Duration Max altitude (degrees)

No matching passes for this satellites